Date String (YYYY-MM-DD hh:mm:ss) UTC,Instrument flags,Ambient pressure (hPa),Sample flow (lpm),Bypass flow (lpm),Sample temperature (°C),Ambient temperature (°C),ASC tube jacket temperature (°C),LED temperature (°C),Box temperature (°C),Sample RH (%),Span deviation,Mass concentration (μg/m³),Mass concentration (μg/m³),Mass concentration (μg/m³)
DateTimeUTC,F1_M11,P_M11,Q1_M11,Q2_M11,T1_M11,T2_M11,T3_M11,T4_M11,T5_M11,U1_M11,ZSPAN_M11,X0_M11,X2_M11,X1_M11
2022-08-30 00:00:00,,0829.9,5.01,0.00,29.4,27.4,00.0,38.0,31.1,20.7,0000.0,0019.28,0006.68,0005.64
2022-08-30 00:01:00,,0829.9,5.00,0.00,29.4,27.7,00.0,38.0,31.2,20.6,0000.0,0018.09,0006.60,0005.60
2022-08-30 00:02:00,,0829.9,5.00,0.00,29.4,28.0,00.0,38.0,31.3,20.4,0000.0,0018.45,0006.62,0005.59
2022-08-30 00:03:00,,0830.0,5.01,0.00,29.5,28.2,00.0,38.1,31.4,20.6,0000.0,0018.62,0006.62,0005.57
2022-08-30 00:04:00,,0830.0,5.00,0.00,29.5,28.4,00.0,38.1,31.5,20.5,0000.0,0020.02,0006.64,0005.55
2022-08-30 00:05:00,,0830.0,4.98,0.00,29.6,28.4,00.0,38.1,31.5,20.5,0000.0,0020.06,0006.65,0005.54
2022-08-30 00:06:00,,0830.0,5.00,0.00,29.6,27.3,00.0,38.1,31.4,20.2,0000.0,0020.09,0006.67,0005.52
2022-08-30 00:07:00,,0830.0,5.00,0.00,29.5,26.5,00.0,38.1,31.3,20.1,0000.0,0020.72,0006.65,0005.50
2022-08-30 00:08:00,,0829.9,5.01,0.00,29.5,26.6,00.0,38.1,31.3,20.1,0000.0,0020.68,0006.62,0005.47
2022-08-30 00:09:00,,0829.9,5.00,0.00,29.4,26.9,00.0,38.0,31.1,20.1,0000.0,0019.99,0006.62,0005.45
2022-08-30 00:10:00,,0830.0,4.99,0.00,29.4,27.2,00.0,38.0,31.1,20.4,0000.0,0020.05,0006.62,0005.43
2022-08-30 00:11:00,,0830.0,5.00,0.00,29.4,27.5,00.0,38.0,31.2,20.2,0000.0,0020.91,0006.57,0005.42
2022-08-30 00:12:00,,0830.0,5.00,0.00,29.4,27.8,00.0,38.0,31.2,20.2,0000.0,0021.19,0006.53,0005.41
2022-08-30 00:13:00,,0830.0,5.01,0.00,29.4,28.1,00.0,38.1,31.3,20.2,0000.0,0022.41,0006.51,0005.40
2022-08-30 00:14:00,,0830.1,5.01,0.00,29.5,28.3,00.0,38.1,31.4,20.3,0000.0,0021.65,0006.49,0005.39
2022-08-30 00:15:00,,0830.1,4.98,0.00,29.5,28.5,00.0,38.1,31.5,20.2,0000.0,0021.06,0006.43,0005.38
2022-08-30 00:16:00,,0830.1,5.01,0.00,29.6,28.1,00.0,38.1,31.5,19.8,0000.0,0020.38,0006.41,0005.35
2022-08-30 00:17:00,,0830.1,5.00,0.00,29.6,26.8,00.0,38.1,31.4,20.1,0000.0,0020.23,0006.39,0005.35
2022-08-30 00:18:00,,0830.1,4.99,0.00,29.5,26.4,00.0,38.1,31.3,20.0,0000.0,0019.42,0006.32,0005.34
2022-08-30 00:19:00,,0830.0,5.00,0.00,29.5,26.7,00.0,38.1,31.3,20.3,0000.0,0018.72,0006.31,0005.32
2022-08-30 00:20:00,,0830.1,5.01,0.00,29.4,27.0,00.0,38.0,31.1,20.0,0000.0,0018.48,0006.29,0005.29
2022-08-30 00:21:00,,0830.1,4.99,0.00,29.4,27.3,00.0,38.0,31.1,20.0,0000.0,0018.52,0006.28,0005.27
2022-08-30 00:22:00,,0830.1,5.01,0.00,29.4,27.6,00.0,38.0,31.2,20.1,0000.0,0018.00,0006.30,0005.25
2022-08-30 00:23:00,,0830.1,5.00,0.00,29.4,27.9,00.0,38.0,31.3,20.1,0000.0,0018.77,0006.34,0005.23
2022-08-30 00:24:00,,0830.1,5.00,0.00,29.5,28.2,00.0,38.1,31.4,20.1,0000.0,0018.53,0006.36,0005.21
2022-08-30 00:25:00,,0830.1,4.99,0.00,29.5,28.4,00.0,38.1,31.4,20.1,0000.0,0018.55,0006.46,0005.20
2022-08-30 00:26:00,,0830.1,5.00,0.00,29.6,28.5,00.0,38.1,31.5,20.3,0000.0,0018.16,0006.43,0005.20
2022-08-30 00:27:00,,0830.1,4.99,0.00,29.6,27.7,00.0,38.1,31.5,20.1,0000.0,0018.02,0006.43,0005.19
2022-08-30 00:28:00,,0830.1,5.00,0.00,29.6,26.6,00.0,38.1,31.4,19.9,0000.0,0018.34,0006.43,0005.17
2022-08-30 00:29:00,,0830.0,5.00,0.00,29.5,26.5,00.0,38.1,31.3,19.7,0000.0,0019.16,0006.44,0005.16
2022-08-30 00:30:00,,0830.0,5.01,0.00,29.4,26.8,00.0,38.0,31.2,19.7,0000.0,0019.79,0006.45,0005.15
2022-08-30 00:31:00,,0830.0,5.00,0.00,29.4,27.1,00.0,38.0,31.1,19.9,0000.0,0020.06,0006.54,0005.16
2022-08-30 00:32:00,,0830.0,5.00,0.00,29.4,27.4,00.0,38.0,31.1,20.0,0000.0,0020.15,0006.54,0005.15
2022-08-30 00:33:00,,0830.0,5.01,0.00,29.4,27.7,00.0,38.0,31.2,20.1,0000.0,0021.76,0006.55,0005.14
2022-08-30 00:34:00,,0830.0,5.00,0.00,29.4,28.0,00.0,38.0,31.3,20.2,0000.0,0021.76,0006.53,0005.14
2022-08-30 00:35:00,,0830.1,4.97,0.00,29.5,28.2,00.0,38.1,31.4,19.9,0000.0,0021.65,0006.51,0005.13
2022-08-30 00:36:00,,0830.1,5.00,0.00,29.5,28.4,00.0,38.1,31.5,20.1,0000.0,0021.22,0006.39,0005.09
2022-08-30 00:37:00,,0830.1,5.00,0.00,29.6,28.3,00.0,38.1,31.5,20.4,0000.0,0020.67,0006.40,0005.07
2022-08-30 00:38:00,,0830.1,5.00,0.00,29.6,27.2,00.0,38.1,31.4,20.2,0000.0,0020.70,0006.40,0005.05
2022-08-30 00:39:00,,0830.1,4.99,0.00,29.5,26.3,00.0,38.1,31.3,20.3,0000.0,0021.37,0006.35,0005.02
2022-08-30 00:40:00,,0830.0,5.01,0.00,29.5,26.5,00.0,38.1,31.3,20.7,0000.0,0021.81,0006.38,0005.01
2022-08-30 00:41:00,,0830.1,4.99,0.00,29.4,26.8,00.0,38.0,31.1,20.1,0000.0,0021.42,0006.38,0004.99
2022-08-30 00:42:00,,0830.1,5.01,0.00,29.4,27.1,00.0,38.0,31.1,19.9,0000.0,0021.84,0006.31,0004.96
2022-08-30 00:43:00,,0830.1,5.00,0.00,29.4,27.4,00.0,38.0,31.1,19.7,0000.0,0021.03,0006.25,0004.93
2022-08-30 00:44:00,,0830.1,5.00,0.00,29.4,27.7,00.0,38.0,31.2,19.9,0000.0,0019.82,0006.22,0004.90
2022-08-30 00:45:00,,0830.1,5.01,0.00,29.4,28.0,00.0,38.0,31.3,20.0,0000.0,0019.76,0006.19,0004.88
2022-08-30 00:46:00,,0830.1,4.98,0.00,29.5,28.2,00.0,38.1,31.4,20.2,0000.0,0018.41,0006.11,0004.85
2022-08-30 00:47:00,,0830.1,5.00,0.00,29.5,28.4,00.0,38.1,31.4,20.0,0000.0,0018.03,0006.08,0004.84
2022-08-30 00:48:00,,0830.1,5.01,0.00,29.6,28.5,00.0,38.1,31.5,19.8,0000.0,0019.35,0006.05,0004.82
2022-08-30 00:49:00,,0830.1,5.00,0.00,29.6,27.6,00.0,38.1,31.4,20.0,0000.0,0019.82,0005.99,0004.82
2022-08-30 00:50:00,,0830.1,5.00,0.00,29.5,26.5,00.0,38.1,31.3,20.2,0000.0,0018.72,0005.99,0004.82
2022-08-30 00:51:00,,0830.1,5.00,0.00,29.5,26.5,00.0,38.1,31.3,20.3,0000.0,0018.62,0005.95,0004.81
2022-08-30 00:52:00,,0830.1,5.01,0.00,29.4,26.8,00.0,38.0,31.1,20.4,0000.0,0018.98,0005.91,0004.81
2022-08-30 00:53:00,,0830.0,4.99,0.00,29.4,27.1,00.0,38.0,31.1,20.5,0000.0,0018.98,0005.94,0004.82
2022-08-30 00:54:00,,0830.1,5.01,0.00,29.4,27.4,00.0,38.0,31.1,20.0,0000.0,0019.82,0006.00,0004.84
2022-08-30 00:55:00,,0830.1,5.00,0.00,29.4,27.7,00.0,38.0,31.2,20.4,0000.0,0020.91,0005.98,0004.84
2022-08-30 00:56:00,,0830.1,5.00,0.00,29.4,28.0,00.0,38.0,31.3,20.4,0000.0,0020.54,0006.00,0004.85
2022-08-30 00:57:00,,0830.1,4.98,0.00,29.5,28.2,00.0,38.1,31.4,20.5,0000.0,0020.37,0006.05,0004.87
2022-08-30 00:58:00,,0830.1,5.00,0.00,29.5,28.4,00.0,38.1,31.4,20.6,0000.0,0020.44,0006.05,0004.89
2022-08-30 00:59:00,,0830.1,5.01,0.00,29.6,28.6,00.0,38.1,31.5,20.4,0000.0,0019.39,0006.10,0004.89
